Weather History for KDNV - October, 2011

Change the Weather History Date:

Saturday, October 8, 2011

  Actual Average (KLAF) Record (KLAF)
Temperature  
Mean Temperature 68 °F 57 °F  
Max Temperature 82 °F 68 °F 90 °F (2007)
Min Temperature 53 °F 46 °F 27 °F (2012)
Degree Days  
Heating Degree Days 0 9  
Month to date heating degree days 63  
Since 1 July heating degree days 148  
Cooling Degree Days 2 1  
Month to date cooling degree days 9  
Year to date cooling degree days 974  
Growing Degree Days 18 (Base 50)    
Moisture  
Dew Point 52 °F    
Average Humidity 60    
Maximum Humidity 94    
Minimum Humidity 30    
Precipitation  
Precipitation 0.00 in 0.10 in 0.86 in (1970)
Month to date precipitation 0.80  
Year to date precipitation 29.01  
Sea Level Pressure  
Sea Level Pressure 30.29 in    
Wind  
Wind Speed 5 mph (SSE)    
Max Wind Speed 13 mph    
Max Gust Speed 18 mph    
Visibility 10 miles    
Events      
T = Trace of Precipitation, MM = Missing Value Source: NWS Daily Summary

Daily Weather History Graph

Daily Weather History Graph

Search for Another Location

Airport or City:

Trip Planner

Search our weather history database for the weather conditions in past years. The results will help you decide how hot, cold, wet, or windy it might be!

Date:

Astronomy

Oct. 08, 2011 Rise Set
Actual Time 6:53 AM CDT 6:21 PM CDT
Civil Twilight 6:26 AM CDT 6:48 PM CDT
Nautical Twilight 5:54 AM CDT 7:20 PM CDT
Astronomical Twilight 5:23 AM CDT 7:51 PM CDT
Moon 4:32 PM CDT (10/8) 3:40 AM CDT (10/8)
Length of Visible Light 12h 22m
Length of Day
11h 28m
Waxing Gibbous, 90% of the Moon is Illuminated
Oct 8
Waxing Gibbous
Oct 11
Full
Oct 19
Last Quarter
Oct 26
New
Nov 2
First Quarter

Hourly Weather History & Observations

Time (CDT) Temp. Heat Index Dew Point Humidity Pressure Visibility Wind Dir Wind Speed Gust Speed Precip Events Conditions
12:15 AM 60.8 °F - 53.6 °F 77% 30.26 in 10.0 mi SE 4.6 mph - N/A   Clear
12:35 AM 59.0 °F - 51.8 °F 77% 30.25 in 10.0 mi SE 6.9 mph - N/A   Clear
12:55 AM 60.8 °F - 53.6 °F 77% 30.25 in 10.0 mi SE 6.9 mph - N/A   Clear
1:15 AM 60.8 °F - 53.6 °F 77% 30.25 in 10.0 mi SSE 4.6 mph - N/A   Clear
1:35 AM 59.0 °F - 51.8 °F 77% 30.26 in 10.0 mi SSE 3.5 mph - N/A   Clear
1:55 AM 57.2 °F - 51.8 °F 82% 30.26 in 10.0 mi SE 3.5 mph - N/A   Clear
2:15 AM 59.0 °F - 51.8 °F 77% 30.26 in 10.0 mi Calm Calm - N/A   Clear
2:35 AM 59.0 °F - 51.8 °F 77% 30.26 in 10.0 mi Calm Calm - N/A   Clear
2:55 AM 59.0 °F - 51.8 °F 77% 30.26 in 10.0 mi Calm Calm - N/A   Clear
3:15 AM 57.2 °F - 51.8 °F 82% 30.27 in 10.0 mi Calm Calm - N/A   Clear
3:35 AM 57.2 °F - 51.8 °F 82% 30.27 in 10.0 mi Calm Calm - N/A   Clear
3:55 AM 59.0 °F - 51.8 °F 77% 30.27 in 10.0 mi Calm Calm - N/A   Clear
4:15 AM 57.2 °F - 51.8 °F 82% 30.28 in 10.0 mi Calm Calm - N/A   Clear
4:35 AM 57.2 °F - 51.8 °F 82% 30.28 in 10.0 mi SE 3.5 mph - N/A   Clear
4:55 AM 57.2 °F - 51.8 °F 82% 30.27 in 10.0 mi SE 3.5 mph - N/A   Clear
5:15 AM 55.4 °F - 51.8 °F 88% 30.28 in 10.0 mi Calm Calm - N/A   Clear
5:35 AM 55.4 °F - 50.0 °F 82% 30.29 in 10.0 mi Calm Calm - N/A   Clear
5:55 AM 55.4 °F - 51.8 °F 88% 30.29 in 10.0 mi Calm Calm - N/A   Clear
6:15 AM 53.6 °F - 51.8 °F 94% 30.30 in 10.0 mi Calm Calm - N/A   Clear
6:35 AM 53.6 °F - 50.0 °F 88% 30.31 in 10.0 mi Calm Calm - N/A   Clear
6:55 AM 53.6 °F - 51.8 °F 94% 30.31 in 10.0 mi Calm Calm - N/A   Clear
7:15 AM 53.6 °F - 50.0 °F 88% 30.31 in 10.0 mi Calm Calm - N/A   Clear
7:35 AM 55.4 °F - 51.8 °F 88% 30.32 in 10.0 mi Calm Calm - N/A   Clear
7:55 AM 57.2 °F - 53.6 °F 88% 30.33 in 10.0 mi SE 3.5 mph - N/A   Clear
8:15 AM 60.8 °F - 53.6 °F 77% 30.33 in 10.0 mi SSE 3.5 mph - N/A   Clear
8:35 AM 60.8 °F - 53.6 °F 77% 30.34 in 10.0 mi SSE 5.8 mph - N/A   Clear
8:55 AM 62.6 °F - 55.4 °F 77% 30.34 in 10.0 mi SSE 5.8 mph - N/A   Clear
9:15 AM 66.2 °F - 55.4 °F 68% 30.34 in 10.0 mi South 5.8 mph - N/A   Clear
9:35 AM 69.8 °F - 55.4 °F 60% 30.34 in 10.0 mi South 6.9 mph - N/A   Clear
9:55 AM 71.6 °F - 55.4 °F 57% 30.34 in 10.0 mi South 8.1 mph - N/A   Clear
10:15 AM 73.4 °F - 55.4 °F 53% 30.34 in 10.0 mi South 8.1 mph - N/A   Clear
10:35 AM 73.4 °F - 55.4 °F 53% 30.33 in 10.0 mi South 11.5 mph - N/A   Clear
10:55 AM 77.0 °F - 55.4 °F 47% 30.33 in 10.0 mi SSW 8.1 mph - N/A   Clear
11:15 AM 77.0 °F - 55.4 °F 47% 30.33 in 10.0 mi SSW 8.1 mph - N/A   Clear
11:35 AM 78.8 °F - 55.4 °F 44% 30.33 in 10.0 mi SW 11.5 mph - N/A   Clear
11:55 AM 78.8 °F - 55.4 °F 44% 30.32 in 10.0 mi South 11.5 mph 17.3 mph N/A   Clear
12:15 PM 80.6 °F 80.3 °F 53.6 °F 39% 30.32 in 10.0 mi SSW 8.1 mph - N/A   Clear
12:35 PM 80.6 °F 80.3 °F 53.6 °F 39% 30.31 in 10.0 mi SSW 9.2 mph - N/A   Clear
1:15 PM 82.4 °F - 51.8 °F 35% 30.30 in 10.0 mi South 9.2 mph 16.1 mph N/A   Clear
1:35 PM 82.4 °F - 51.8 °F 35% 30.29 in 10.0 mi South 12.7 mph - N/A   Clear
1:55 PM 82.4 °F - 51.8 °F 35% 30.28 in 10.0 mi South 11.5 mph 16.1 mph N/A   Clear
2:15 PM 82.4 °F - 50.0 °F 32% 30.27 in 10.0 mi SSW 12.7 mph 18.4 mph N/A   Clear
2:35 PM 82.4 °F - 50.0 °F 32% 30.27 in 10.0 mi South 10.4 mph - N/A   Clear
2:55 PM 82.4 °F - 50.0 °F 32% 30.26 in 10.0 mi South 10.4 mph - N/A   Clear
3:15 PM 82.4 °F - 50.0 °F 32% 30.26 in 10.0 mi South 9.2 mph 17.3 mph N/A   Clear
3:35 PM 82.4 °F - 48.2 °F 30% 30.26 in 10.0 mi South 9.2 mph - N/A   Clear
3:55 PM 82.4 °F - 50.0 °F 32% 30.26 in 10.0 mi SSE 11.5 mph 16.1 mph N/A   Clear
4:15 PM 80.6 °F - 50.0 °F 34% 30.26 in 10.0 mi South 10.4 mph - N/A   Clear
4:35 PM 80.6 °F - 50.0 °F 34% 30.25 in 10.0 mi SSE 9.2 mph - N/A   Clear
4:55 PM 80.6 °F - 50.0 °F 34% 30.26 in 10.0 mi SSE 10.4 mph - N/A   Clear
5:15 PM 78.8 °F - 50.0 °F 36% 30.26 in 10.0 mi SSE 10.4 mph - N/A   Clear
5:35 PM 78.8 °F - 50.0 °F 36% 30.26 in 10.0 mi SSE 8.1 mph - N/A   Clear
5:55 PM 77.0 °F - 50.0 °F 39% 30.27 in 10.0 mi South 5.8 mph - N/A   Clear
6:15 PM 73.4 °F - 50.0 °F 44% 30.26 in 10.0 mi South 4.6 mph - N/A   Clear
6:35 PM 71.6 °F - 48.2 °F 43% 30.27 in 10.0 mi SSE 5.8 mph - N/A   Clear
6:55 PM 69.8 °F - 48.2 °F 46% 30.27 in 10.0 mi SSE 5.8 mph - N/A   Clear
7:15 PM 69.8 °F - 48.2 °F 46% 30.28 in 10.0 mi SSE 5.8 mph - N/A   Clear
7:35 PM 68.0 °F - 48.2 °F 49% 30.28 in 10.0 mi SE 5.8 mph - N/A   Clear
7:55 PM 68.0 °F - 50.0 °F 52% 30.28 in 10.0 mi SSE 5.8 mph - N/A   Clear
8:15 PM 64.4 °F - 48.2 °F 56% 30.28 in 10.0 mi SSE 4.6 mph - N/A   Clear
8:35 PM 64.4 °F - 48.2 °F 56% 30.29 in 10.0 mi SSE 3.5 mph - N/A   Clear
8:55 PM 64.4 °F - 48.2 °F 56% 30.29 in 10.0 mi SE 3.5 mph - N/A   Clear
9:15 PM 62.6 °F - 50.0 °F 63% 30.28 in 10.0 mi SE 4.6 mph - N/A   Clear
9:35 PM 60.8 °F - 50.0 °F 68% 30.28 in 10.0 mi SE 4.6 mph - N/A   Clear
9:55 PM 60.8 °F - 50.0 °F 68% 30.28 in 10.0 mi SE 3.5 mph - N/A   Clear
10:15 PM 60.8 °F - 50.0 °F 68% 30.28 in 10.0 mi Calm Calm - N/A   Clear
10:35 PM 60.8 °F - 50.0 °F 68% 30.29 in 10.0 mi Calm Calm - N/A   Clear
10:55 PM 59.0 °F - 50.0 °F 72% 30.29 in 10.0 mi Calm Calm - N/A   Scattered Clouds
11:15 PM 59.0 °F - 50.0 °F 72% 30.29 in 10.0 mi Calm Calm - N/A   Clear
11:35 PM 55.4 °F - 48.2 °F 77% 30.29 in 10.0 mi Calm Calm - N/A   Clear
11:55 PM 55.4 °F - 50.0 °F 82% 30.29 in 10.0 mi Calm Calm - N/A   Clear